Location: Arrien
(43.3167°N, 0.1500°W)
Time: 22:52:13
(UTC+00:00)

Cosmos 405 Rocket - Pass Details

Date: 15 October 2021
Orbit: 488 x 551 km, 81.3° (Epoch: 04 December)

Event Time Altitude Azimuth Distance (km) Brightness Sun altitude
Rises 18:45:42 0° 353° (N) 2,665 6.5 -16.8°
Reaches altitude 10° 18:47:51 10° 356° (N) 1,782 5.5 -17.2°
Maximum altitude 18:51:45 64° 79° (ENE) 600 2.7 -17.9°
Enters shadow 18:54:07 23° 155° (SSE) 1,186 4.2 -18.3°
